EW0802 Weather Reports


Display with metric or nautical units.
time (UTC)temp
F
wind
direction
speed
MPH
gust
MPH
rain 1hr
in
rain 24hr
in
rain mn
in
humidity
%
barometer
mb
20260902094517 81 157 0.0 0.0 0.00 0.00 0.00 69 1013.2
20260902093006 82 157 0.0 0.0 0.00 0.00 0.00 68 1013.1
20260902091505 82 135 0.0 2.0 0.00 0.00 0.00 67 1013.2
20260902090004 82 159 0.0 2.0 0.00 0.00 0.00 67 1013.3
20260902084502 83 192 1.0 3.0 0.00 0.00 0.00 66 1013.2
20260902083107 83 157 0.0 3.0 0.00 0.00 0.00 66 1013.1
20260902081604 83 143 0.0 5.0 0.00 0.00 0.00 65 1013.3
20260902080107 84 181 2.0 5.0 0.00 0.00 0.00 65 1013.2
20260902074557 84 82 1.0 4.0 0.00 0.00 0.00 64 1013.2
20260902073057 84 145 0.0 7.0 0.00 0.00 0.00 63 1013.3
20260902071556 85 155 1.0 7.0 0.00 0.00 0.00 63 1013.4
20260902070056 85 167 1.0 5.0 0.00 0.00 0.00 62 1013.3
20260902064558 85 140 1.0 7.0 0.00 0.00 0.00 62 1013.3
20260902063048 85 161 0.0 6.0 0.00 0.00 0.00 62 1013.2
20260902061553 85 114 1.0 6.0 0.00 0.00 0.00 62 1013.1
20260902060047 86 146 0.0 7.0 0.00 0.00 0.00 61 1013.1
20260902054547 86 185 0.0 7.0 0.00 0.00 0.00 61 1013.0
20260902053043 86 180 2.0 6.0 0.00 0.00 0.00 60 1012.9
20260902051538 87 163 1.0 7.0 0.00 0.00 0.00 60 1012.7
20260902050039 87 155 0.0 4.0 0.00 0.00 0.00 59 1012.8
20260902044535 88 113 1.0 8.0 0.00 0.00 0.00 58 1012.8
20260902043035 88 157 2.0 8.0 0.00 0.00 0.00 56 1012.8
20260902041535 88 107 2.0 6.0 0.00 0.00 0.00 55 1012.6
20260902040034 89 113 0.0 0.0 0.00 0.00 0.00 54 1012.4
20260902034533 89 112 0.0 0.0 0.00 0.00 0.00 53 1012.4
20260902033040 89 159 0.0 0.0 0.00 0.00 0.00 53 1012.4
20260902031534 89 136 0.0 0.0 0.00 0.00 0.00 53 1012.3
20260902030032 90 144 0.0 0.0 0.00 0.00 0.00 52 1012.2
20260902024532 90 131 0.0 0.0 0.00 0.00 0.00 52 1011.9
20260902023031 90 84 0.0 0.0 0.00 0.00 0.00 50 1011.7
20260902021536 91 84 0.0 0.0 0.00 0.00 0.00 49 1011.5
20260902020030 91 84 0.0 0.0 0.00 0.00 0.00 48 1011.3
20260902014537 92 84 0.0 0.0 0.00 0.00 0.00 47 1011.1
20260902013030 92 130 0.0 1.0 0.00 0.00 0.00 47 1011.0
20260902011536 93 100 0.0 1.0 0.00 0.00 0.00 47 1010.9
20260902010042 93 106 0.0 1.0 0.00 0.00 0.00 46 1010.7
20260902004533 94 49 0.0 2.0 0.00 0.00 0.00 46 1010.7
20260902003025 94 163 0.0 2.0 0.00 0.00 0.00 45 1010.8
20260902001524 95 252 0.0 1.0 0.00 0.00 0.00 45 1010.9
20260902000032 95 78 0.0 2.0 0.00 0.00 0.00 44 1011.0
20260901234546 96 133 0.0 3.0 0.00 0.00 0.00 44 1011.1
20260901233019 96 57 1.0 4.0 0.00 0.00 0.00 42 1011.1
20260901231524 98 92 1.0 2.0 0.00 0.00 0.00 42 1011.1
20260901230018 101 48 1.0 6.0 0.00 0.00 0.00 39 1011.1
20260901224523 101 105 0.0 6.0 0.00 0.00 0.00 38 1011.0
20260901223026 100 153 1.0 4.0 0.00 0.00 0.00 38 1011.0
20260901221522 100 185 2.0 6.0 0.00 0.00 0.00 38 1011.1
20260901220018 100 202 1.0 5.0 0.00 0.00 0.00 38 1011.1
20260901214512 99 180 1.0 6.0 0.00 0.00 0.00 39 1011.3
20260901213013 98 66 0.0 6.0 0.00 0.00 0.00 40 1011.4
20260901211513 98 126 0.0 2.0 0.00 0.00 0.00 40 1011.7
20260901210008 99 201 0.0 3.0 0.00 0.00 0.00 39 1011.8
20260901204507 100 68 0.0 4.0 0.00 0.00 0.00 39 1012.0
20260901203015 100 246 0.0 2.0 0.00 0.00 0.00 39 1011.9
20260901201503 99 96 0.0 3.0 0.00 0.00 0.00 39 1012.2
20260901200007 100 197 1.0 3.0 0.00 0.00 0.00 39 1012.4
20260901194503 99 90 1.0 5.0 0.00 0.00 0.00 40 1012.6
20260901193059 99 40 0.0 3.0 0.00 0.00 0.00 40 1012.8
20260901191559 100 78 1.0 6.0 0.00 0.00 0.00 41 1013.0
20260901190106 101 82 1.0 4.0 0.00 0.00 0.00 40 1013.2
20260901184551 99 242 1.0 4.0 0.00 0.00 0.00 41 1013.4
20260901183049 98 107 0.0 9.0 0.00 0.00 0.00 42 1013.8
20260901181554 98 122 3.0 8.0 0.00 0.00 0.00 42 1013.9
20260901180043 97 236 0.0 5.0 0.00 0.00 0.00 45 1014.2
20260901174542 98 74 1.0 6.0 0.00 0.00 0.00 44 1014.3
20260901173059 97 127 0.0 3.0 0.00 0.00 0.00 44 1014.6
20260901171537 97 163 0.0 3.0 0.00 0.00 0.00 46 1014.8
20260901170033 97 76 2.0 4.0 0.00 0.00 0.00 46 1014.9
20260901164528 96 119 0.0 7.0 0.00 0.00 0.00 48 1015.2
20260901163023 95 296 1.0 6.0 0.00 0.00 0.00 49 1015.3
20260901161519 94 190 2.0 4.0 0.00 0.00 0.00 50 1015.4
20260901160017 93 132 0.0 3.0 0.00 0.00 0.00 53 1015.3
20260901154511 92 254 2.0 6.0 0.00 0.00 0.00 54 1015.4
20260901153005 91 69 1.0 3.0 0.00 0.00 0.00 55 1015.3
20260901151504 90 240 1.0 3.0 0.00 0.00 0.00 59 1015.3
20260901150057 88 124 1.0 3.0 0.00 0.00 0.00 62 1015.3
20260901144555 87 257 0.0 4.0 0.00 0.00 0.00 64 1015.4
20260901143049 86 285 0.0 3.0 0.00 0.00 0.00 67 1015.5
20260901141553 84 157 0.0 3.0 0.00 0.00 0.00 69 1015.5
20260901140043 82 331 0.0 4.0 0.00 0.00 0.00 72 1015.5
20260901134537 81 157 0.0 5.0 0.00 0.00 0.00 73 1015.4
20260901133042 80 131 0.0 1.0 0.00 0.00 0.00 74 1015.4
20260901131535 80 183 0.0 1.0 0.00 0.00 0.00 74 1015.4
20260901130031 79 138 0.0 3.0 0.00 0.00 0.00 74 1015.2
20260901124528 79 107 0.0 3.0 0.00 0.00 0.00 74 1015.0
20260901123024 79 168 0.0 1.0 0.00 0.00 0.00 72 1014.8
20260901121521 79 148 0.0 0.0 0.00 0.00 0.00 71 1014.6
20260901120019 80 148 0.0 0.0 0.00 0.00 0.00 71 1014.4
20260901114518 80 157 0.0 1.0 0.00 0.00 0.00 70 1014.4
20260901113016 80 140 0.0 1.0 0.00 0.00 0.00 70 1014.5
20260901111513 81 180 0.0 1.0 0.00 0.00 0.00 69 1014.2
20260901110023 81 151 0.0 2.0 0.00 0.00 0.00 69 1013.9
20260901104510 81 134 0.0 1.0 0.00 0.00 0.00 68 1014.0
20260901103008 81 86 0.0 3.0 0.00 0.00 0.00 67 1013.9
20260901101509 82 162 0.0 3.0 0.00 0.00 0.00 66 1013.9
20260901100005 82 155 0.0 3.0 0.00 0.00 0.00 65 1013.9